Time,TemperatureF,DewpointF,PressureIn,WindDirection,WindDirectionDegrees,WindSpeedMPH,WindSpeedGustMPH,Humidity,HourlyPrecipIn,Conditions,Clouds,dailyrainin,SolarRadiationWatts/m^2,SoftwareType,DateUTC
2013-06-28 00:00:00,66.5,64.1,29.64,SE,135,0.0,0.0,92,0.00,CLR,OVC,0.68,0.0,WeatherDisplay:10.37,2013-06-28 04:00:00,
2013-06-28 00:05:00,66.4,64.0,29.63,SE,135,0.0,0.0,92,0.00,RA,OVC,0.00,0.0,WeatherDisplay:10.37,2013-06-28 04:05:00,
2013-06-28 00:10:00,66.4,64.0,29.63,SE,135,0.0,0.0,92,0.00,RA,OVC,0.00,0.0,WeatherDisplay:10.37,2013-06-28 04:10:00,
2013-06-28 00:15:00,66.4,64.0,29.63,SE,135,0.0,1.0,92,0.00,CLR,OVC,0.00,0.0,WeatherDisplay:10.37,2013-06-28 04:15:00,
2013-06-28 00:20:00,66.3,63.9,29.63,SE,135,0.0,0.0,92,0.00,CLR,OVC,0.00,0.0,WeatherDisplay:10.37,2013-06-28 04:20:00,
2013-06-28 00:25:00,66.3,63.9,29.62,SE,135,0.0,1.0,92,0.00,CLR,OVC,0.00,0.0,WeatherDisplay:10.37,2013-06-28 04:25:00,
2013-06-28 00:30:00,66.2,63.8,29.62,SE,135,0.0,0.0,92,0.00,CLR,OVC,0.00,0.0,WeatherDisplay:10.37,2013-06-28 04:30:00,
2013-06-28 00:35:00,66.2,63.8,29.62,SE,135,0.0,0.0,92,0.00,CLR,OVC,0.00,0.0,WeatherDisplay:10.37,2013-06-28 04:35:00,
2013-06-28 00:40:00,66.2,63.8,29.62,SE,135,0.0,0.0,92,0.00,CLR,OVC,0.00,0.0,WeatherDisplay:10.37,2013-06-28 04:40:00,
2013-06-28 00:45:00,66.1,63.7,29.62,SE,135,0.0,0.0,92,0.00,CLR,OVC,0.00,0.0,WeatherDisplay:10.37,2013-06-28 04:45:00,
2013-06-28 00:50:00,66.1,63.7,29.61,SE,135,0.0,0.0,92,0.00,CLR,OVC,0.00,0.0,WeatherDisplay:10.37,2013-06-28 04:50:00,
2013-06-28 00:55:00,66.2,63.8,29.62,SE,135,0.0,0.0,92,0.00,CLR,OVC,0.00,0.0,WeatherDisplay:10.37,2013-06-28 04:55:00,
2013-06-28 01:00:00,66.2,63.8,29.62,SE,135,0.0,2.0,92,0.00,CLR,OVC,0.00,0.0,WeatherDisplay:10.37,2013-06-28 05:00:00,
2013-06-28 01:05:00,66.2,63.8,29.62,SE,135,0.0,3.0,92,0.00,CLR,OVC,0.00,0.0,WeatherDisplay:10.37,2013-06-28 05:05:00,
2013-06-28 01:10:00,66.2,63.8,29.62,SE,135,2.0,3.0,92,0.00,CLR,OVC,0.00,0.0,WeatherDisplay:10.37,2013-06-28 05:10:00,
2013-06-28 01:15:00,66.2,64.1,29.62,SE,135,0.0,3.0,93,0.00,CLR,OVC,0.00,0.0,WeatherDisplay:10.37,2013-06-28 05:15:00,
2013-06-28 01:20:00,66.2,64.1,29.62,SE,135,0.0,1.0,93,0.00,CLR,OVC,0.00,0.0,WeatherDisplay:10.37,2013-06-28 05:20:00,
2013-06-28 01:25:00,66.3,64.2,29.62,SE,135,0.0,0.0,93,0.00,CLR,OVC,0.00,0.0,WeatherDisplay:10.37,2013-06-28 05:25:00,
2013-06-28 01:30:00,66.3,64.2,29.62,SE,135,0.0,2.0,93,0.00,CLR,OVC,0.00,0.0,WeatherDisplay:10.37,2013-06-28 05:30:00,
2013-06-28 01:35:00,66.3,64.2,29.62,SE,135,0.0,0.0,93,0.00,CLR,OVC,0.00,0.0,WeatherDisplay:10.37,2013-06-28 05:35:00,
2013-06-28 01:40:00,66.3,64.2,29.62,SE,135,0.0,1.0,93,0.00,CLR,OVC,0.00,0.0,WeatherDisplay:10.37,2013-06-28 05:40:00,
2013-06-28 01:45:00,66.3,64.2,29.62,SE,135,0.0,2.0,93,0.00,CLR,OVC,0.00,0.0,WeatherDisplay:10.37,2013-06-28 05:45:00,
2013-06-28 01:50:00,66.3,64.2,29.62,SE,135,1.0,3.0,93,0.00,CLR,OVC,0.00,0.0,WeatherDisplay:10.37,2013-06-28 05:50:00,
2013-06-28 01:55:00,66.3,64.2,29.62,SE,135,2.0,3.0,93,0.00,CLR,OVC,0.00,0.0,WeatherDisplay:10.37,2013-06-28 05:55:00,
2013-06-28 02:00:00,66.3,64.2,29.61,SE,135,2.0,3.0,93,0.00,CLR,OVC,0.00,0.0,WeatherDisplay:10.37,2013-06-28 06:00:00,
2013-06-28 02:05:00,66.1,63.7,29.61,SE,135,3.0,4.0,92,0.00,CLR,OVC,0.00,0.0,WeatherDisplay:10.37,2013-06-28 06:05:00,
2013-06-28 02:10:00,66.0,63.6,29.61,SE,135,3.0,7.0,92,0.00,CLR,OVC,0.00,0.0,WeatherDisplay:10.37,2013-06-28 06:10:00,
2013-06-28 02:15:00,65.8,63.7,29.61,SE,135,0.0,7.0,93,0.00,CLR,OVC,0.00,0.0,WeatherDisplay:10.37,2013-06-28 06:15:00,
2013-06-28 02:20:00,65.6,63.2,29.61,SE,135,2.0,7.0,92,0.00,CLR,OVC,0.00,0.0,WeatherDisplay:10.37,2013-06-28 06:20:00,
2013-06-28 02:25:00,65.5,63.1,29.61,SE,135,0.0,3.0,92,0.00,CLR,OVC,0.00,0.0,WeatherDisplay:10.37,2013-06-28 06:25:00,
2013-06-28 02:30:00,65.4,63.0,29.60,SE,135,0.0,0.0,92,0.01,RA,OVC,0.01,0.0,WeatherDisplay:10.37,2013-06-28 06:30:00,
2013-06-28 02:35:00,65.4,63.0,29.59,SE,135,0.0,0.0,92,0.01,RA,OVC,0.01,0.0,WeatherDisplay:10.37,2013-06-28 06:35:00,
2013-06-28 02:40:00,65.3,62.9,29.59,SE,135,0.0,1.0,92,0.00,CLR,OVC,0.01,0.0,WeatherDisplay:10.37,2013-06-28 06:40:00,
2013-06-28 02:45:00,65.3,62.9,29.59,SE,135,0.0,3.0,92,0.00,CLR,OVC,0.01,0.0,WeatherDisplay:10.37,2013-06-28 06:45:00,
2013-06-28 02:50:00,65.2,63.1,29.58,SE,135,0.0,0.0,93,0.00,CLR,OVC,0.01,0.0,WeatherDisplay:10.37,2013-06-28 06:50:00,
2013-06-28 02:55:00,65.2,63.1,29.58,SE,135,0.0,0.0,93,0.00,CLR,OVC,0.01,0.0,WeatherDisplay:10.37,2013-06-28 06:55:00,
2013-06-28 03:00:00,65.2,63.1,29.58,SE,135,0.0,0.0,93,0.00,CLR,OVC,0.01,0.0,WeatherDisplay:10.37,2013-06-28 07:00:00,
2013-06-28 03:05:00,65.1,63.0,29.58,SE,135,0.0,0.0,93,0.00,CLR,OVC,0.01,0.0,WeatherDisplay:10.37,2013-06-28 07:05:00,
2013-06-28 03:10:00,65.1,63.0,29.58,SE,135,0.0,0.0,93,0.00,CLR,OVC,0.01,0.0,WeatherDisplay:10.37,2013-06-28 07:10:00,
2013-06-28 03:15:00,65.0,62.9,29.58,SE,135,0.0,0.0,93,0.00,CLR,OVC,0.01,0.0,WeatherDisplay:10.37,2013-06-28 07:15:00,
2013-06-28 03:20:00,65.0,62.9,29.58,SE,135,0.0,0.0,93,0.00,CLR,OVC,0.01,0.0,WeatherDisplay:10.37,2013-06-28 07:20:00,
2013-06-28 03:25:00,65.0,62.9,29.58,SE,135,0.0,0.0,93,0.00,CLR,OVC,0.01,0.0,WeatherDisplay:10.37,2013-06-28 07:25:00,
2013-06-28 03:30:00,65.0,62.9,29.57,SE,135,0.0,1.0,93,0.00,CLR,OVC,0.01,0.0,WeatherDisplay:10.37,2013-06-28 07:30:00,
2013-06-28 03:35:00,65.0,62.9,29.57,SE,135,0.0,0.0,93,0.00,CLR,OVC,0.01,0.0,WeatherDisplay:10.37,2013-06-28 07:35:00,
2013-06-28 03:40:00,65.0,62.9,29.57,SE,135,0.0,0.0,93,0.00,CLR,OVC,0.01,0.0,WeatherDisplay:10.37,2013-06-28 07:40:00,
2013-06-28 03:45:00,65.0,62.9,29.56,SE,135,0.0,0.0,93,0.00,CLR,OVC,0.01,0.0,WeatherDisplay:10.37,2013-06-28 07:45:00,
2013-06-28 03:50:00,64.9,62.8,29.56,SE,135,0.0,0.0,93,0.00,CLR,OVC,0.01,0.0,WeatherDisplay:10.37,2013-06-28 07:50:00,
2013-06-28 03:55:00,64.9,62.8,29.56,SE,135,0.0,0.0,93,0.00,CLR,OVC,0.01,0.0,WeatherDisplay:10.37,2013-06-28 07:55:00,
2013-06-28 04:00:00,64.9,62.8,29.56,SE,135,0.0,0.0,93,0.00,CLR,OVC,0.01,0.0,WeatherDisplay:10.37,2013-06-28 08:00:00,
2013-06-28 04:05:00,64.9,62.8,29.56,SE,135,0.0,0.0,93,0.00,CLR,OVC,0.01,0.0,WeatherDisplay:10.37,2013-06-28 08:05:00,
2013-06-28 04:10:00,64.8,62.7,29.57,SE,135,0.0,0.0,93,0.00,CLR,OVC,0.01,0.0,WeatherDisplay:10.37,2013-06-28 08:10:00,
2013-06-28 04:15:00,64.7,62.6,29.57,SE,135,0.0,0.0,93,0.00,CLR,OVC,0.01,0.0,WeatherDisplay:10.37,2013-06-28 08:15:00,
2013-06-28 04:20:00,64.6,62.5,29.57,SE,135,0.0,0.0,93,0.00,CLR,OVC,0.01,0.0,WeatherDisplay:10.37,2013-06-28 08:20:00,
2013-06-28 04:25:00,64.6,62.5,29.56,SE,135,0.0,0.0,93,0.00,CLR,OVC,0.01,0.0,WeatherDisplay:10.37,2013-06-28 08:25:00,
2013-06-28 04:30:00,64.6,62.5,29.56,SE,135,0.0,0.0,93,0.00,CLR,OVC,0.01,0.0,WeatherDisplay:10.37,2013-06-28 08:30:00,
2013-06-28 04:35:00,64.6,62.5,29.56,SE,135,0.0,0.0,93,0.00,CLR,OVC,0.01,0.0,WeatherDisplay:10.37,2013-06-28 08:35:00,
2013-06-28 04:40:00,64.6,62.5,29.56,SE,135,0.0,0.0,93,0.00,CLR,OVC,0.01,0.0,WeatherDisplay:10.37,2013-06-28 08:40:00,
2013-06-28 04:45:00,64.6,62.5,29.56,SE,135,0.0,0.0,93,0.00,CLR,OVC,0.01,0.0,WeatherDisplay:10.37,2013-06-28 08:45:00,
2013-06-28 04:50:00,64.5,62.4,29.56,SE,135,0.0,0.0,93,0.00,CLR,OVC,0.01,0.0,WeatherDisplay:10.37,2013-06-28 08:50:00,
2013-06-28 04:55:00,64.5,62.4,29.56,SE,135,0.0,0.0,93,0.00,CLR,OVC,0.01,0.0,WeatherDisplay:10.37,2013-06-28 08:55:00,
2013-06-28 05:00:00,64.5,62.4,29.56,SE,135,0.0,0.0,93,0.00,CLR,OVC,0.01,0.0,WeatherDisplay:10.37,2013-06-28 09:00:00,
2013-06-28 05:05:00,64.5,62.4,29.56,SE,135,0.0,0.0,93,0.00,CLR,OVC,0.01,0.0,WeatherDisplay:10.37,2013-06-28 09:05:00,
2013-06-28 05:10:00,64.4,62.3,29.56,SE,135,0.0,0.0,93,0.00,CLR,OVC,0.01,0.0,WeatherDisplay:10.37,2013-06-28 09:10:00,
2013-06-28 05:15:00,64.4,62.3,29.56,SE,135,0.0,1.0,93,0.00,CLR,OVC,0.01,0.0,WeatherDisplay:10.37,2013-06-28 09:15:00,
2013-06-28 05:20:00,64.4,62.3,29.56,SE,135,0.0,2.0,93,0.00,CLR,OVC,0.01,0.0,WeatherDisplay:10.37,2013-06-28 09:20:00,
2013-06-28 05:25:00,64.4,62.3,29.56,SE,135,0.0,2.0,93,0.00,CLR,OVC,0.01,0.0,WeatherDisplay:10.37,2013-06-28 09:25:00,
2013-06-28 05:30:00,64.4,62.3,29.56,SE,135,0.0,0.0,93,0.00,CLR,OVC,0.01,0.0,WeatherDisplay:10.37,2013-06-28 09:30:00,
2013-06-28 05:35:00,64.4,62.3,29.57,SE,135,0.0,0.0,93,0.00,CLR,OVC,0.01,0.0,WeatherDisplay:10.37,2013-06-28 09:35:00,
2013-06-28 05:40:00,64.4,62.3,29.57,SE,135,0.0,0.0,93,0.00,CLR,OVC,0.01,0.0,WeatherDisplay:10.37,2013-06-28 09:40:00,
2013-06-28 05:45:00,64.5,62.4,29.57,SE,135,0.0,0.0,93,0.00,CLR,OVC,0.01,0.0,WeatherDisplay:10.37,2013-06-28 09:45:00,
2013-06-28 05:50:00,64.5,62.4,29.57,SE,135,0.0,0.0,93,0.01,RA,OVC,0.02,0.0,WeatherDisplay:10.37,2013-06-28 09:50:00,
2013-06-28 05:55:00,64.5,62.4,29.57,SE,135,0.0,0.0,93,0.01,RA,OVC,0.02,0.0,WeatherDisplay:10.37,2013-06-28 09:55:00,
2013-06-28 06:00:00,64.5,62.4,29.57,SE,135,0.0,0.0,93,0.00,CLR,OVC,0.02,0.0,WeatherDisplay:10.37,2013-06-28 10:00:00,
2013-06-28 06:05:00,64.5,62.4,29.57,SE,135,0.0,0.0,93,0.00,CLR,OVC,0.02,0.0,WeatherDisplay:10.37,2013-06-28 10:05:00,
2013-06-28 06:10:00,64.5,62.4,29.57,SE,135,0.0,0.0,93,0.00,CLR,OVC,0.02,5.0,WeatherDisplay:10.37,2013-06-28 10:10:00,
2013-06-28 06:15:00,64.5,62.4,29.57,SE,135,0.0,0.0,93,0.00,CLR,OVC,0.02,7.0,WeatherDisplay:10.37,2013-06-28 10:15:00,
2013-06-28 06:20:00,64.5,62.4,29.58,SE,135,0.0,0.0,93,0.00,CLR,OVC,0.02,9.0,WeatherDisplay:10.37,2013-06-28 10:20:00,
2013-06-28 06:25:00,64.6,62.5,29.57,SE,135,0.0,0.0,93,0.00,CLR,OVC,0.02,9.0,WeatherDisplay:10.37,2013-06-28 10:25:00,
2013-06-28 06:30:00,64.7,62.6,29.57,SE,135,0.0,0.0,93,0.00,CLR,OVC,0.02,9.0,WeatherDisplay:10.37,2013-06-28 10:30:00,
2013-06-28 06:35:00,64.9,62.8,29.57,SE,135,0.0,0.0,93,0.00,CLR,OVC,0.02,12.0,WeatherDisplay:10.37,2013-06-28 10:35:00,
2013-06-28 06:40:00,64.9,62.8,29.57,SE,135,0.0,0.0,93,0.00,CLR,OVC,0.02,12.0,WeatherDisplay:10.37,2013-06-28 10:40:00,
2013-06-28 06:45:00,65.0,62.9,29.57,SE,135,0.0,0.0,93,0.01,RA,OVC,0.03,14.0,WeatherDisplay:10.37,2013-06-28 10:45:00,
2013-06-28 06:50:00,65.1,63.0,29.57,SE,135,0.0,1.0,93,0.01,RA,OVC,0.03,14.0,WeatherDisplay:10.37,2013-06-28 10:50:00,
2013-06-28 06:55:00,65.1,63.0,29.57,SE,135,0.0,0.0,93,0.00,CLR,OVC,0.03,16.0,WeatherDisplay:10.37,2013-06-28 10:55:00,
2013-06-28 07:00:00,65.2,63.1,29.57,SE,135,0.0,0.0,93,0.00,OVC,OVC,0.03,16.0,WeatherDisplay:10.37,2013-06-28 11:00:00,
2013-06-28 07:05:00,65.2,63.1,29.57,SE,135,0.0,0.0,93,0.01,RA,OVC,0.04,18.0,WeatherDisplay:10.37,2013-06-28 11:05:00,
2013-06-28 07:10:00,65.3,63.2,29.57,SE,135,0.0,0.0,93,0.01,RA,OVC,0.04,23.0,WeatherDisplay:10.37,2013-06-28 11:10:00,
2013-06-28 07:15:00,65.3,63.2,29.57,SE,135,0.0,0.0,93,0.00,OVC,OVC,0.04,25.0,WeatherDisplay:10.37,2013-06-28 11:15:00,
2013-06-28 07:20:00,65.3,63.2,29.56,SE,135,0.0,0.0,93,0.00,OVC,OVC,0.04,26.0,WeatherDisplay:10.37,2013-06-28 11:20:00,
2013-06-28 07:25:00,65.4,63.3,29.57,SE,135,0.0,0.0,93,0.00,OVC,OVC,0.04,26.0,WeatherDisplay:10.37,2013-06-28 11:25:00,
2013-06-28 07:30:00,65.4,63.3,29.57,SE,135,0.0,0.0,93,0.01,RA,OVC,0.05,30.0,WeatherDisplay:10.37,2013-06-28 11:30:00,
2013-06-28 07:35:00,65.5,63.4,29.57,SE,135,0.0,0.0,93,0.01,RA,OVC,0.05,35.0,WeatherDisplay:10.37,2013-06-28 11:35:00,
2013-06-28 07:40:00,65.5,63.4,29.57,SE,135,0.0,0.0,93,0.00,OVC,OVC,0.05,44.0,WeatherDisplay:10.37,2013-06-28 11:40:00,
2013-06-28 07:45:00,65.5,63.4,29.57,SE,135,0.0,0.0,93,0.00,OVC,OVC,0.05,47.0,WeatherDisplay:10.37,2013-06-28 11:45:00,
2013-06-28 08:04:00,65.9,63.8,29.56,SE,125,0.0,8.0,93,0.02,BKN,OVC,0.05,63.0,WeatherDisplay:10.37,2013-06-28 12:04:00,
2013-06-28 08:05:00,65.9,63.8,29.56,SE,125,0.0,8.0,93,0.02,BKN,OVC,0.05,63.0,WeatherDisplay:10.37,2013-06-28 12:05:00,
2013-06-28 08:10:00,65.9,63.8,29.56,SE,125,0.0,8.0,93,0.02,BKN,OVC,0.05,63.0,WeatherDisplay:10.37,2013-06-28 12:10:00,
2013-06-28 08:15:00,65.9,63.8,29.56,North,0,0.0,0.0,93,0.00,OVC,OVC,0.05,74.0,WeatherDisplay:10.37,2013-06-28 12:15:00,
2013-06-28 08:20:00,65.9,63.8,29.56,North,0,0.0,1.0,93,0.00,OVC,OVC,0.05,74.0,WeatherDisplay:10.37,2013-06-28 12:20:00,
2013-06-28 08:25:00,65.8,63.7,29.55,North,0,0.0,0.0,93,0.00,OVC,OVC,0.05,72.0,WeatherDisplay:10.37,2013-06-28 12:25:00,
2013-06-28 08:30:00,65.9,63.8,29.55,North,0,0.0,0.0,93,0.00,OVC,OVC,0.05,84.0,WeatherDisplay:10.37,2013-06-28 12:30:00,
2013-06-28 08:35:00,65.9,63.8,29.55,North,0,0.0,0.0,93,0.00,OVC,OVC,0.05,89.0,WeatherDisplay:10.37,2013-06-28 12:35:00,
2013-06-28 08:40:00,65.9,63.8,29.55,North,0,0.0,0.0,93,0.00,OVC,OVC,0.05,93.0,WeatherDisplay:10.37,2013-06-28 12:40:00,
2013-06-28 08:45:00,65.8,63.7,29.55,North,0,0.0,1.0,93,0.00,OVC,OVC,0.05,91.0,WeatherDisplay:10.37,2013-06-28 12:45:00,
2013-06-28 08:50:00,65.8,63.7,29.55,North,0,0.0,0.0,93,0.00,OVC,OVC,0.05,88.0,WeatherDisplay:10.37,2013-06-28 12:50:00,
2013-06-28 08:55:00,65.8,63.7,29.56,North,0,0.0,0.0,93,0.00,OVC,OVC,0.05,86.0,WeatherDisplay:10.37,2013-06-28 12:55:00,
2013-06-28 09:00:00,65.8,63.7,29.56,North,0,0.0,0.0,93,0.00,OVC,OVC,0.05,90.0,WeatherDisplay:10.37,2013-06-28 13:00:00,
2013-06-28 09:01:00,65.9,63.8,29.56,SE,125,0.0,8.0,93,0.02,BKN,OVC,0.05,63.0,WeatherDisplay:10.37,2013-06-28 13:01:00,
2013-06-28 09:05:00,65.9,63.8,29.55,North,0,0.0,0.0,93,0.00,OVC,OVC,0.05,83.0,WeatherDisplay:10.37,2013-06-28 13:05:00,
2013-06-28 09:06:00,65.9,63.8,29.56,SE,125,0.0,8.0,93,0.02,BKN,OVC,0.05,63.0,WeatherDisplay:10.37,2013-06-28 13:06:00,
2013-06-28 09:10:00,66.0,63.9,29.55,North,0,0.0,0.0,93,0.00,OVC,OVC,0.05,90.0,WeatherDisplay:10.37,2013-06-28 13:10:00,
2013-06-28 09:15:00,65.9,63.8,29.55,North,0,0.0,1.0,93,0.00,OVC,OVC,0.05,88.0,WeatherDisplay:10.37,2013-06-28 13:15:00,
2013-06-28 09:20:00,65.9,63.8,29.55,North,0,0.0,0.0,93,0.00,OVC,OVC,0.05,91.0,WeatherDisplay:10.37,2013-06-28 13:20:00,
2013-06-28 09:25:00,66.0,63.9,29.55,North,0,0.0,0.0,93,0.00,OVC,OVC,0.05,118.0,WeatherDisplay:10.37,2013-06-28 13:25:00,
2013-06-28 09:30:00,66.2,64.1,29.54,North,0,0.0,0.0,93,0.00,OVC,OVC,0.05,142.0,WeatherDisplay:10.37,2013-06-28 13:30:00,
2013-06-28 09:35:00,66.3,64.2,29.54,North,0,0.0,0.0,93,0.00,OVC,OVC,0.05,135.0,WeatherDisplay:10.37,2013-06-28 13:35:00,
2013-06-28 09:40:00,66.3,64.2,29.54,North,0,0.0,0.0,93,0.00,OVC,OVC,0.05,141.0,WeatherDisplay:10.37,2013-06-28 13:40:00,
2013-06-28 09:44:00,65.9,63.8,29.56,SE,125,0.0,8.0,93,0.02,BKN,OVC,0.05,63.0,WeatherDisplay:10.37,2013-06-28 13:44:00,
2013-06-28 09:45:00,66.4,64.6,29.55,North,0,0.0,0.0,94,0.00,OVC,OVC,0.05,140.0,WeatherDisplay:10.37,2013-06-28 13:45:00,
2013-06-28 09:50:00,66.5,64.7,29.54,North,0,0.0,0.0,94,0.00,OVC,OVC,0.05,141.0,WeatherDisplay:10.37,2013-06-28 13:50:00,
2013-06-28 09:55:00,66.6,64.8,29.55,North,11,0.0,2.0,94,0.00,OVC,OVC,0.05,118.0,WeatherDisplay:10.37,2013-06-28 13:55:00,
2013-06-28 10:00:00,66.6,64.5,29.54,ESE,111,0.0,0.0,93,0.00,OVC,OVC,0.05,125.0,WeatherDisplay:10.37,2013-06-28 14:00:00,
2013-06-28 10:05:00,66.6,64.5,29.55,SE,135,0.0,1.0,93,0.00,OVC,OVC,0.05,130.0,WeatherDisplay:10.37,2013-06-28 14:05:00,
2013-06-28 10:10:00,66.6,64.5,29.54,SE,135,0.0,1.0,93,0.00,OVC,OVC,0.05,156.0,WeatherDisplay:10.37,2013-06-28 14:10:00,
2013-06-28 10:15:00,66.7,64.6,29.54,SE,135,0.0,0.0,93,0.00,OVC,OVC,0.05,162.0,WeatherDisplay:10.37,2013-06-28 14:15:00,
2013-06-28 10:20:00,66.8,64.7,29.54,SE,135,0.0,0.0,93,0.00,OVC,OVC,0.05,142.0,WeatherDisplay:10.37,2013-06-28 14:20:00,
2013-06-28 10:25:00,66.8,64.7,29.54,SE,135,0.0,1.0,93,0.00,OVC,OVC,0.05,137.0,WeatherDisplay:10.37,2013-06-28 14:25:00,
2013-06-28 10:30:00,66.9,64.8,29.54,SE,135,0.0,0.0,93,0.00,OVC,OVC,0.05,120.0,WeatherDisplay:10.37,2013-06-28 14:30:00,
2013-06-28 10:35:00,67.0,64.9,29.54,SE,135,0.0,1.0,93,0.00,OVC,OVC,0.05,130.0,WeatherDisplay:10.37,2013-06-28 14:35:00,
2013-06-28 10:40:00,67.1,65.0,29.53,SE,135,0.0,0.0,93,0.00,OVC,OVC,0.05,146.0,WeatherDisplay:10.37,2013-06-28 14:40:00,
2013-06-28 10:45:00,67.1,65.0,29.53,SE,135,0.0,0.0,93,0.00,OVC,OVC,0.05,144.0,WeatherDisplay:10.37,2013-06-28 14:45:00,
2013-06-28 10:50:00,67.3,65.2,29.53,SE,135,0.0,0.0,93,0.00,OVC,OVC,0.05,139.0,WeatherDisplay:10.37,2013-06-28 14:50:00,
2013-06-28 10:55:00,67.5,65.4,29.53,SE,135,0.0,0.0,93,0.01,RA,OVC,0.06,133.0,WeatherDisplay:10.37,2013-06-28 14:55:00,
2013-06-28 11:00:00,67.5,65.4,29.53,SE,135,0.0,0.0,93,0.01,RA,OVC,0.06,123.0,WeatherDisplay:10.37,2013-06-28 15:00:00,
2013-06-28 11:05:00,65.9,63.8,29.56,SE,125,0.0,8.0,93,0.02,BKN,OVC,0.05,63.0,WeatherDisplay:10.37,2013-06-28 15:05:00,
2013-06-28 11:10:00,67.5,65.4,29.53,SE,135,0.0,0.0,93,0.01,RA,OVC,0.07,109.0,WeatherDisplay:10.37,2013-06-28 15:10:00,
2013-06-28 11:15:00,67.6,65.5,29.53,SE,135,0.0,0.0,93,0.01,RA,OVC,0.08,105.0,WeatherDisplay:10.37,2013-06-28 15:15:00,
2013-06-28 11:17:00,65.9,63.8,29.56,SE,125,0.0,8.0,93,0.02,BKN,OVC,0.05,63.0,WeatherDisplay:10.37,2013-06-28 15:17:00,
2013-06-28 11:20:00,67.7,65.6,29.53,SE,135,0.0,0.0,93,0.01,RA,OVC,0.08,105.0,WeatherDisplay:10.37,2013-06-28 15:20:00,
2013-06-28 11:25:00,67.7,65.6,29.53,SE,135,0.0,0.0,93,0.00,OVC,OVC,0.08,109.0,WeatherDisplay:10.37,2013-06-28 15:25:00,
2013-06-28 11:30:00,67.7,65.6,29.53,SE,135,0.0,0.0,93,0.00,OVC,OVC,0.08,136.0,WeatherDisplay:10.37,2013-06-28 15:30:00,
2013-06-28 11:31:00,65.9,63.8,29.56,SE,125,0.0,8.0,93,0.02,BKN,OVC,0.05,63.0,WeatherDisplay:10.37,2013-06-28 15:31:00,
2013-06-28 11:35:00,67.9,65.8,29.53,SE,135,0.0,0.0,93,0.00,OVC,OVC,0.08,167.0,WeatherDisplay:10.37,2013-06-28 15:35:00,
2013-06-28 11:40:00,67.9,65.8,29.53,SE,135,0.0,0.0,93,0.00,OVC,OVC,0.08,229.0,WeatherDisplay:10.37,2013-06-28 15:40:00,
2013-06-28 11:45:00,68.0,65.9,29.53,SE,135,0.0,0.0,93,0.00,OVC,OVC,0.08,274.0,WeatherDisplay:10.37,2013-06-28 15:45:00,
2013-06-28 11:50:00,67.7,65.3,29.53,SE,135,0.0,0.0,92,0.00,OVC,OVC,0.08,350.0,WeatherDisplay:10.37,2013-06-28 15:50:00,
2013-06-28 11:55:00,68.2,66.1,29.53,SE,135,0.0,0.0,93,0.00,OVC,OVC,0.08,415.0,WeatherDisplay:10.37,2013-06-28 15:55:00,
2013-06-28 12:00:00,68.6,66.5,29.53,SE,135,0.0,1.0,93,0.00,OVC,OVC,0.08,460.0,WeatherDisplay:10.37,2013-06-28 16:00:00,
2013-06-28 12:05:00,68.6,66.2,29.53,SE,135,0.0,1.0,92,0.00,OVC,OVC,0.08,675.0,WeatherDisplay:10.37,2013-06-28 16:05:00,
2013-06-28 12:10:00,68.9,66.5,29.53,SE,135,0.0,1.0,92,0.00,OVC,OVC,0.08,527.0,WeatherDisplay:10.37,2013-06-28 16:10:00,
2013-06-28 12:15:00,69.0,66.3,29.53,SE,135,0.0,1.0,91,0.00,OVC,OVC,0.08,615.0,WeatherDisplay:10.37,2013-06-28 16:15:00,
2013-06-28 12:20:00,69.4,66.7,29.53,SE,135,0.0,0.0,91,0.00,OVC,OVC,0.08,450.0,WeatherDisplay:10.37,2013-06-28 16:20:00,
2013-06-28 12:25:00,69.9,67.2,29.52,SE,135,0.0,1.0,91,0.00,OVC,OVC,0.08,515.0,WeatherDisplay:10.37,2013-06-28 16:25:00,
2013-06-28 12:30:00,70.7,67.6,29.52,SE,135,0.0,0.0,90,0.00,OVC,OVC,0.08,534.0,WeatherDisplay:10.37,2013-06-28 16:30:00,
2013-06-28 12:35:00,71.5,67.4,29.52,SE,135,0.0,4.0,87,0.00,OVC,OVC,0.08,464.0,WeatherDisplay:10.37,2013-06-28 16:35:00,
2013-06-28 12:40:00,71.6,66.8,29.52,SE,135,0.0,3.0,85,0.00,OVC,OVC,0.08,517.0,WeatherDisplay:10.37,2013-06-28 16:40:00,
2013-06-28 12:45:00,71.8,66.7,29.51,SE,135,0.0,1.0,84,0.00,OVC,OVC,0.08,424.0,WeatherDisplay:10.37,2013-06-28 16:45:00,
2013-06-28 12:50:00,72.1,65.9,29.51,SE,135,0.0,2.0,81,0.00,OVC,OVC,0.08,350.0,WeatherDisplay:10.37,2013-06-28 16:50:00,
2013-06-28 12:55:00,72.4,66.2,29.51,SE,135,0.0,1.0,81,0.00,OVC,OVC,0.08,295.0,WeatherDisplay:10.37,2013-06-28 16:55:00,
2013-06-28 13:00:00,72.5,66.0,29.52,SE,135,0.0,1.0,80,0.00,OVC,OVC,0.08,269.0,WeatherDisplay:10.37,2013-06-28 17:00:00,
2013-06-28 13:05:00,72.8,65.9,29.51,SE,135,0.0,0.0,79,0.00,OVC,OVC,0.08,279.0,WeatherDisplay:10.37,2013-06-28 17:05:00,
2013-06-28 13:10:00,73.2,66.3,29.51,SE,135,0.0,0.0,79,0.00,OVC,OVC,0.08,283.0,WeatherDisplay:10.37,2013-06-28 17:10:00,
2013-06-28 13:15:00,73.4,65.7,29.51,SE,135,0.0,1.0,77,0.00,OVC,OVC,0.08,267.0,WeatherDisplay:10.37,2013-06-28 17:15:00,
2013-06-28 13:20:00,73.5,65.8,29.51,SE,135,0.0,2.0,77,0.00,OVC,OVC,0.08,241.0,WeatherDisplay:10.37,2013-06-28 17:20:00,
2013-06-28 13:25:00,73.5,65.8,29.51,SE,135,0.0,3.0,77,0.00,OVC,OVC,0.08,246.0,WeatherDisplay:10.37,2013-06-28 17:25:00,
2013-06-28 13:26:00,65.9,63.8,29.56,SE,125,0.0,8.0,93,0.02,BKN,OVC,0.05,63.0,WeatherDisplay:10.37,2013-06-28 17:26:00,
2013-06-28 13:30:00,73.3,65.7,29.50,SE,135,0.0,1.0,77,0.00,OVC,OVC,0.08,227.0,WeatherDisplay:10.37,2013-06-28 17:30:00,
2013-06-28 13:35:00,73.2,65.9,29.50,SE,135,0.0,4.0,78,0.00,OVC,OVC,0.08,220.0,WeatherDisplay:10.37,2013-06-28 17:35:00,
2013-06-28 13:40:00,73.2,66.3,29.50,SE,135,0.0,1.0,79,0.00,OVC,OVC,0.08,183.0,WeatherDisplay:10.37,2013-06-28 17:40:00,
2013-06-28 13:45:00,73.0,65.7,29.50,SE,135,0.0,2.0,78,0.00,OVC,OVC,0.08,186.0,WeatherDisplay:10.37,2013-06-28 17:45:00,
2013-06-28 13:50:00,72.8,65.9,29.50,SE,135,2.0,5.0,79,0.00,OVC,OVC,0.08,95.0,WeatherDisplay:10.37,2013-06-28 17:50:00,
2013-06-28 13:55:00,72.1,65.6,29.50,SE,142,3.0,10.0,80,0.03,RA,OVC,0.11,60.0,WeatherDisplay:10.37,2013-06-28 17:55:00,
2013-06-28 14:00:00,71.2,65.4,29.50,SSE,149,0.0,4.0,82,0.09,RA,OVC,0.17,91.0,WeatherDisplay:10.37,2013-06-28 18:00:00,
2013-06-28 14:05:00,70.4,65.0,29.50,SSE,158,1.0,5.0,83,0.12,RA,OVC,0.23,104.0,WeatherDisplay:10.37,2013-06-28 18:05:00,
2013-06-28 14:10:00,69.7,64.3,29.51,SSE,158,0.0,4.0,83,0.08,RA,OVC,0.25,104.0,WeatherDisplay:10.37,2013-06-28 18:10:00,
2013-06-28 14:15:00,69.3,64.3,29.50,SSE,158,0.0,2.0,84,0.02,RA,OVC,0.25,93.0,WeatherDisplay:10.37,2013-06-28 18:15:00,
2013-06-28 14:20:00,69.0,64.3,29.50,SSE,158,0.0,0.0,85,0.00,OVC,OVC,0.25,93.0,WeatherDisplay:10.37,2013-06-28 18:20:00,
2013-06-28 14:25:00,68.7,64.3,29.50,SSE,158,0.0,2.0,86,0.00,OVC,OVC,0.25,113.0,WeatherDisplay:10.37,2013-06-28 18:25:00,
2013-06-28 14:30:00,68.5,64.1,29.50,SSE,158,0.0,1.0,86,0.00,OVC,OVC,0.25,107.0,WeatherDisplay:10.37,2013-06-28 18:30:00,
2013-06-28 14:35:00,68.4,64.4,29.50,SSE,158,0.0,1.0,87,0.00,OVC,OVC,0.25,104.0,WeatherDisplay:10.37,2013-06-28 18:35:00,
2013-06-28 14:40:00,68.4,64.7,29.50,SSE,158,0.0,1.0,88,0.01,RA,OVC,0.26,105.0,WeatherDisplay:10.37,2013-06-28 18:40:00,
2013-06-28 14:45:00,68.3,64.6,29.50,SSE,158,0.0,1.0,88,0.01,RA,OVC,0.26,120.0,WeatherDisplay:10.37,2013-06-28 18:45:00,
2013-06-28 15:14:00,67.9,64.5,29.50,SSE,150,0.0,10.4,89,0.19,RA,OVC,0.28,100.0,WeatherDisplay:10.37,2013-06-28 19:14:00,
2013-06-28 15:19:00,67.9,64.5,29.50,SSE,150,0.0,10.4,89,0.19,RA,OVC,0.28,100.0,WeatherDisplay:10.37,2013-06-28 19:19:00,
2013-06-28 15:38:00,68.2,65.2,29.49,SE,146,0.8,4.0,90,0.20,RA,OVC,0.28,334.0,WeatherDisplay:10.37,2013-06-28 19:38:00,
2013-06-28 15:43:00,68.2,65.2,29.49,SE,146,0.8,4.0,90,0.20,RA,OVC,0.28,334.0,WeatherDisplay:10.37,2013-06-28 19:43:00,
2013-06-28 16:12:00,68.5,64.8,29.49,East,91,3.7,8.0,88,0.20,RA,OVC,0.28,258.0,WeatherDisplay:10.37,2013-06-28 20:12:00,
2013-06-28 16:17:00,68.5,64.8,29.49,East,91,3.7,8.0,88,0.20,RA,OVC,0.28,258.0,WeatherDisplay:10.37,2013-06-28 20:17:00,
2013-06-28 16:37:00,68.0,64.0,29.49,NE,44,6.8,10.4,87,0.18,RA,OVC,0.28,362.0,WeatherDisplay:10.37,2013-06-28 20:37:00,
2013-06-28 16:42:00,68.0,64.0,29.49,NE,44,6.8,10.4,87,0.18,RA,OVC,0.28,362.0,WeatherDisplay:10.37,2013-06-28 20:42:00,
2013-06-28 17:02:00,68.0,64.0,29.50,North,355,5.9,11.5,87,0.15,RA,OVC,0.28,134.0,WeatherDisplay:10.37,2013-06-28 21:02:00,
2013-06-28 17:07:00,68.0,64.0,29.50,North,355,5.9,11.5,87,0.15,RA,OVC,0.28,134.0,WeatherDisplay:10.37,2013-06-28 21:07:00,
2013-06-28 17:46:00,67.2,64.2,29.50,North,355,2.0,10.4,90,0.23,-RA,OVC,0.40,79.0,WeatherDisplay:10.37,2013-06-28 21:46:00,
2013-06-28 17:51:00,67.2,64.2,29.50,North,355,2.0,10.4,90,0.23,-RA,OVC,0.40,79.0,WeatherDisplay:10.37,2013-06-28 21:51:00,
2013-06-28 18:10:00,66.6,63.6,29.50,North,355,1.1,5.8,90,0.20,-RA,OVC,0.56,21.0,WeatherDisplay:10.37,2013-06-28 22:10:00,
2013-06-28 18:15:00,66.6,63.6,29.50,North,355,1.1,5.8,90,0.20,-RA,OVC,0.56,21.0,WeatherDisplay:10.37,2013-06-28 22:15:00,
2013-06-28 18:22:00,66.3,63.3,29.50,NNW,348,0.1,3.5,90,0.41,-RA,OVC,0.67,19.0,WeatherDisplay:10.37,2013-06-28 22:22:00,
2013-06-28 18:27:00,66.3,63.3,29.50,NNW,348,0.1,3.5,90,0.41,-RA,OVC,0.67,19.0,WeatherDisplay:10.37,2013-06-28 22:27:00,
2013-06-28 18:46:00,65.8,63.1,29.50,NNW,348,0.2,4.0,91,0.50,-RA,OVC,0.74,56.0,WeatherDisplay:10.37,2013-06-28 22:46:00,
2013-06-28 18:51:00,65.8,63.1,29.50,NNW,348,0.2,4.0,91,0.50,-RA,OVC,0.74,56.0,WeatherDisplay:10.37,2013-06-28 22:51:00,
2013-06-28 19:10:00,65.4,62.7,29.50,NNE,15,1.9,5.0,91,0.50,-RA,OVC,0.76,14.0,WeatherDisplay:10.37,2013-06-28 23:10:00,
2013-06-28 19:15:00,65.4,62.7,29.50,NNE,15,1.9,5.0,91,0.50,-RA,OVC,0.76,14.0,WeatherDisplay:10.37,2013-06-28 23:15:00,
2013-06-28 19:44:00,64.7,62.3,29.51,NNE,18,1.4,5.0,92,0.63,RA,OVC,0.95,35.0,WeatherDisplay:10.37,2013-06-28 23:44:00,
2013-06-28 19:49:00,64.7,62.3,29.51,NNE,18,1.4,5.0,92,0.63,RA,OVC,0.95,35.0,WeatherDisplay:10.37,2013-06-28 23:49:00,
2013-06-28 20:04:00,64.7,62.3,29.51,NNE,18,1.4,5.0,92,0.63,RA,OVC,0.95,35.0,WeatherDisplay:10.37,2013-06-29 00:04:00,
2013-06-28 20:09:00,64.6,62.2,29.51,NNE,18,1.1,4.0,92,0.71,RA,OVC,0.96,7.0,WeatherDisplay:10.37,2013-06-29 00:09:00,
2013-06-28 20:10:00,64.6,62.2,29.51,NNE,18,1.1,4.0,92,0.71,RA,OVC,0.96,7.0,WeatherDisplay:10.37,2013-06-29 00:10:00,
2013-06-28 20:15:00,64.6,62.2,29.51,NNE,18,1.1,4.0,92,0.71,RA,OVC,0.96,7.0,WeatherDisplay:10.37,2013-06-29 00:15:00,
2013-06-28 20:32:00,64.5,62.1,29.51,NNE,18,1.7,8.0,92,0.72,RA,OVC,0.97,5.0,WeatherDisplay:10.37,2013-06-29 00:32:00,
2013-06-28 20:37:00,64.5,62.1,29.51,NNE,18,1.7,8.0,92,0.72,RA,OVC,0.97,5.0,WeatherDisplay:10.37,2013-06-29 00:37:00,
2013-06-28 20:45:00,63.9,61.5,29.51,NNE,18,1.6,5.0,92,0.72,RA,OVC,0.97,0.0,WeatherDisplay:10.37,2013-06-29 00:45:00,
2013-06-28 20:50:00,63.9,61.5,29.51,NNE,18,1.6,5.0,92,0.72,RA,OVC,0.97,0.0,WeatherDisplay:10.37,2013-06-29 00:50:00,
2013-06-28 21:09:00,63.5,61.1,29.51,NNE,18,1.1,5.0,92,0.73,RA,OVC,0.99,0.0,WeatherDisplay:10.37,2013-06-29 01:09:00,
2013-06-28 21:10:00,63.5,61.1,29.51,NNE,18,1.1,5.0,92,0.73,RA,OVC,0.99,0.0,WeatherDisplay:10.37,2013-06-29 01:10:00,
2013-06-28 21:15:00,63.5,61.1,29.51,NNE,18,1.1,5.0,92,0.73,RA,OVC,0.99,0.0,WeatherDisplay:10.37,2013-06-29 01:15:00,
2013-06-28 21:44:00,63.3,61.2,29.52,NNE,18,0.2,4.6,93,0.76,RA,OVC,1.02,0.0,WeatherDisplay:10.37,2013-06-29 01:44:00,
2013-06-28 21:49:00,63.3,61.2,29.52,NNE,18,0.2,4.6,93,0.76,RA,OVC,1.02,0.0,WeatherDisplay:10.37,2013-06-29 01:49:00,
2013-06-28 22:08:00,63.2,61.1,29.52,NNE,18,0.0,2.3,93,0.79,RA,OVC,1.05,0.0,WeatherDisplay:10.37,2013-06-29 02:08:00,
2013-06-28 22:13:00,63.2,61.1,29.52,NNE,18,0.0,2.3,93,0.79,RA,OVC,1.05,0.0,WeatherDisplay:10.37,2013-06-29 02:13:00,
2013-06-28 22:33:00,63.2,61.1,29.52,NNE,18,0.0,0.0,93,0.81,-RA,OVC,1.07,0.0,WeatherDisplay:10.37,2013-06-29 02:33:00,
2013-06-28 22:34:00,63.2,61.1,29.52,NNE,18,0.0,0.0,93,0.81,-RA,OVC,1.07,0.0,WeatherDisplay:10.37,2013-06-29 02:34:00,
2013-06-28 22:39:00,63.2,61.1,29.52,NNE,18,0.0,0.0,93,0.81,-RA,OVC,1.07,0.0,WeatherDisplay:10.37,2013-06-29 02:39:00,
2013-06-28 22:57:00,62.9,60.8,29.52,NNE,18,0.5,3.0,93,0.83,-RA,OVC,1.13,0.0,WeatherDisplay:10.37,2013-06-29 02:57:00,
2013-06-28 22:58:00,62.9,60.8,29.52,NNE,18,0.5,3.0,93,0.83,-RA,OVC,1.13,0.0,WeatherDisplay:10.37,2013-06-29 02:58:00,
2013-06-28 23:03:00,62.9,60.8,29.52,NNE,18,0.5,3.0,93,0.83,-RA,OVC,1.13,0.0,WeatherDisplay:10.37,2013-06-29 03:03:00,
2013-06-28 23:32:00,62.6,60.5,29.51,NNE,18,0.8,4.0,93,0.92,-RA,OVC,1.18,0.0,WeatherDisplay:10.37,2013-06-29 03:32:00,
2013-06-28 23:37:00,62.6,60.5,29.51,NNE,18,0.8,4.0,93,0.92,-RA,OVC,1.18,0.0,WeatherDisplay:10.37,2013-06-29 03:37:00,
2013-06-28 23:56:00,62.7,60.6,29.51,NNE,18,0.0,3.5,93,0.93,-RA,OVC,1.19,0.0,WeatherDisplay:10.37,2013-06-29 03:56:00,